weather.gov     
National Weather Service

Weather Roundup
NWS Homepage
This page is being discontinued on March 12, 2014.
The same data is available at this site. Please update your bookmarks.
Thank you, and we apologize for the inconvenience.
Please send an email to SR-SRH.Webmaster@noaa.gov with any concerns.


Current Version
Previous Version:    01  02  03  04  05  06  07  08  09  10  11  12  13  14  15  16  17  18  19  20  21  22  23  24  25  26  27  28  29  30  
   31  32  33  34  35  36  37  38  39  40  41  42  43  44  45  46  47  48  49  50  51  52  53  54  55  56  57  58  59  60  
[Printable]
120
NZUS99 KSGF 232007
HRRSGF

HOURLY WEATHER
NATIONAL WEATHER SERVICE SPRINGFIELD MO
300 PM CDT WED APR 23 2014

......SGF CWA......

CITY           SKY/WX    TMP DP  RH WIND       PRES   REMARKS
SPRINGFIELD    MOSUNNY   76  43  30 S16G23    29.91F
JOPLIN         SUNNY     80  46  30 S14       29.85F
WEST PLAINS    SUNNY     72  37  28 SE9       29.98F
ROLLA          PTSUNNY   67  33  28 E8        29.97F
OSAGE BEACH    CLOUDY    66  36  32 E8        29.95F
BRANSON        MOSUNNY   75  41  29 SE12G18   29.95F

......SURROUNDING SGF CWA......

CITY           SKY/WX    TMP DP  RH WIND       PRES   REMARKS
CHANUTE        SUNNY     81  47  30 S23       29.81F
PARSONS        SUNNY     83  46  27 S16G24    29.82F
COFFEYVILLE    SUNNY     82  49  31 S16G24    29.81F
EMPORIA        MOSUNNY   80  46  30 S23G32    29.76F
GROVE OK       SUNNY     82  50  32 SE14      29.86F
ROGERS AR      SUNNY     78  44  29 S10G20    29.90F
SILOAM SPRINGS SUNNY     79  50  36 S9G20     29.91S
HARRISON AR    SUNNY     77  42  28 SE13      29.93F
NEAR YELLVILLE SUNNY     75  43  31 E8        29.94F

......KANSAS AND MISSOURI......

CITY           SKY/WX    TMP DP  RH WIND       PRES   REMARKS
KANSAS CTY INT PTSUNNY   72  40  31 SE20G28   29.84S
DOWNTOWN KC    MOSUNNY   73  40  30 SE21G29   29.84S
COLUMBIA       PTSUNNY   65  38  36 SE9G20    29.97F
SEDALIA        MOSUNNY   69  39  33 SE21      29.93F
ST JOSEPH      CLOUDY    67  41  38 SE12      29.84S
ST LOUIS       PTSUNNY   65  36  34 E12       30.05F
SPIRIT OF STL  PTSUNNY   62  37  39 E9        30.03F
KIRKSVILLE     CLOUDY    58  36  43 SE14      29.99S
WICHITA        PTSUNNY   85  42  22 S29G37    29.72F
TOPEKA         PTSUNNY   78  45  30 SE16G29   29.79S
OLATHE         MOSUNNY   71  43  36 SE20G26   29.83F

......TENNESSEE......

CITY           SKY/WX    TMP DP  RH WIND       PRES   REMARKS
MEMPHIS        MOSUNNY   77  36  22 VRB6      29.98F
NASHVILLE      SUNNY     69  35  28 NW6       30.02F

......ARKANSAS.......

CITY           SKY/WX    TMP DP  RH WIND       PRES   REMARKS
FAYETTEVILLE   SUNNY     77  50  38 S9        29.90F
FT SMITH       SUNNY     83  55  38 SE9G18    29.86F
LITTLE ROCK    MOSUNNY   77  45  32 SE8       29.96F

......OKLAHOMA.......

CITY           SKY/WX    TMP DP  RH WIND       PRES   REMARKS
TULSA          MOSUNNY   83  56  39 S21       29.79F
PONCA CITY     SUNNY     88  45  22 S10G30    29.75F
MCALESTER      SUNNY     83  56  39 S14G21    29.85F
OKLAHOMA CITY  PTSUNNY   86  53  32 S22G33    29.78F

......IOWA............

CITY           SKY/WX    TMP DP  RH WIND       PRES   REMARKS
DES MOINES     LGT RAIN  47  40  76 SE22G31   29.93F
QUAD CITIES    CLOUDY    56  25  30 E12G17    30.08F

......ILLINOIS........

CITY           SKY/WX    TMP DP  RH WIND       PRES   REMARKS
QUINCY         CLOUDY    59  33  37 SE13      30.03F
CHICAGO        PTSUNNY   51  25  36 NE9       30.14F





U.S. Dept. of Commerce
NOAA National Weather Service
1325 East West Highway
Silver Spring, MD 20910
E-mail: w-nws.webmaster@noaa.gov
Page last modified: May 16, 2007
NATIONAL WEATHER SERVICE: for Safety, for Work, for Fun - FOR LIFE